Volver al catálogo

DELTA 1 DEB

LostUNKNOWN
NORAD 27789·DEBRIS·🇺🇸 United States

Lanzado Nov 6, 1965 desde Cape Canaveral Space Force Station

Loading…

Próximos Pases (próximas 24 horas)

TLE

ObsoletoSource: Space-Track

Época: Nov 24, 2025, 14:38 UTC

1 27789U 65089F   25328.60987824 -.00000396  00000-0 -17551-2 0  9996
2 27789  59.4147 281.3034 0666838 228.2334 310.0799 12.10977339    19

Sigue DELTA 1 DEB en tiempo real con AllMySat

Download on the App Store